Location: Vassar Physics Lab
(41.6843°N, 73.8954°W)
Time: 21:46:04
(UTC-04:00)

CZ-4B DEB - Visible Passes

Search period start: 26 June 2017 00:00
Search period end: 06 July 2017 00:00
Orbit: 841 x 863 km, 99.0° (Epoch: 26 June)

Date Brightness Start Highest point End Pass type
(mag) Time Alt. Az. Time Alt. Az. Time Alt. Az.
26 Jun 5.0 04:39:08 10° NNE 04:44:32 54° E 04:49:57 10° S visible
27 Jun 5.4 04:27:46 10° NNE 04:33:02 42° E 04:38:15 10° S visible
28 Jun 5.8 04:16:29 10° NNE 04:21:28 34° E 04:26:27 10° SSE visible
29 Jun 6.1 04:05:17 10° NE 04:09:55 27° E 04:14:32 10° SSE visible
30 Jun 6.4 03:54:10 10° NE 03:58:20 21° E 04:02:28 10° SE visible
01 Jul 6.7 03:43:14 10° NE 03:46:43 17° E 03:50:12 10° SE visible
02 Jul 6.8 03:32:37 10° ENE 03:35:05 13° E 03:37:34 10° ESE visible
04 Jul 4.7 04:47:56 10° NNE 04:53:27 64° ESE 04:58:57 10° S visible
05 Jul 5.1 04:36:32 10° NNE 04:41:56 50° E 04:47:19 10° S visible
